Time,TemperatureF,DewpointF,PressureIn,WindDirection,WindDirectionDegrees,WindSpeedMPH,WindSpeedGustMPH,Humidity,HourlyPrecipIn,Conditions,Clouds,dailyrainin,SolarRadiationWatts/m^2,SoftwareType,DateUTC
2013-12-16 00:22:00,39.0,20.0,-100.00,NW,316,8.0,21.0,47,0.00,,,0.00,0.000000,,2013-12-16 07:22:00,
2013-12-16 00:33:00,39.0,20.0,-100.00,NW,316,8.0,21.0,47,0.00,,,0.00,0.000000,,2013-12-16 07:33:00,
2013-12-16 00:43:00,39.0,20.0,-100.00,NW,316,8.0,21.0,47,0.00,,,0.00,0.000000,,2013-12-16 07:43:00,
2013-12-16 00:52:00,39.0,20.0,-100.00,NW,316,8.0,21.0,47,0.00,,,0.00,0.000000,,2013-12-16 07:52:00,
2013-12-16 01:22:00,39.0,21.0,-100.00,NW,304,8.0,19.0,48,0.00,,,0.00,0.000000,,2013-12-16 08:22:00,
2013-12-16 01:32:00,39.0,21.0,-100.00,NW,304,8.0,19.0,48,0.00,,,0.00,0.000000,,2013-12-16 08:32:00,
2013-12-16 01:42:00,39.0,21.0,-100.00,NW,304,8.0,19.0,48,0.00,,,0.00,0.000000,,2013-12-16 08:42:00,
2013-12-16 01:52:00,39.0,21.0,-100.00,NW,304,8.0,19.0,48,0.00,,,0.00,0.000000,,2013-12-16 08:52:00,
2013-12-16 02:22:00,40.0,20.0,-100.00,NW,306,7.0,21.0,44,0.00,,,0.00,0.000000,,2013-12-16 09:22:00,
2013-12-16 02:33:00,40.0,20.0,-100.00,NW,306,7.0,21.0,44,0.00,,,0.00,0.000000,,2013-12-16 09:33:00,
2013-12-16 02:43:00,40.0,20.0,-100.00,NW,306,7.0,21.0,44,0.00,,,0.00,0.000000,,2013-12-16 09:43:00,
2013-12-16 02:53:00,40.0,20.0,-100.00,NW,306,7.0,21.0,44,0.00,,,0.00,0.000000,,2013-12-16 09:53:00,
2013-12-16 03:23:00,38.0,19.0,-100.00,WNW,295,6.0,23.0,45,-99.99,,,0.00,0.000000,,2013-12-16 10:23:00,
2013-12-16 03:33:00,38.0,19.0,-100.00,WNW,295,6.0,23.0,45,-99.99,,,0.00,0.000000,,2013-12-16 10:33:00,
2013-12-16 03:43:00,38.0,19.0,-100.00,WNW,295,6.0,23.0,45,-99.99,,,0.00,0.000000,,2013-12-16 10:43:00,
2013-12-16 03:52:00,38.0,19.0,-100.00,WNW,295,6.0,23.0,45,-99.99,,,0.00,0.000000,,2013-12-16 10:52:00,
2013-12-16 04:22:00,40.0,19.0,-100.00,WNW,298,6.0,24.0,42,0.00,,,0.00,0.000000,,2013-12-16 11:22:00,
2013-12-16 04:33:00,40.0,19.0,-100.00,WNW,298,6.0,24.0,42,0.00,,,0.00,0.000000,,2013-12-16 11:33:00,
2013-12-16 04:42:00,40.0,19.0,-100.00,WNW,298,6.0,24.0,42,0.00,,,0.00,0.000000,,2013-12-16 11:42:00,
2013-12-16 04:52:00,40.0,19.0,-100.00,WNW,298,6.0,24.0,42,0.00,,,0.00,0.000000,,2013-12-16 11:52:00,
2013-12-16 05:22:00,37.0,18.0,-100.00,North,354,4.0,17.0,46,0.00,,,0.00,0.000000,,2013-12-16 12:22:00,
2013-12-16 05:32:00,37.0,18.0,-100.00,North,354,4.0,17.0,46,0.00,,,0.00,0.000000,,2013-12-16 12:32:00,
2013-12-16 05:42:00,37.0,18.0,-100.00,North,354,4.0,17.0,46,0.00,,,0.00,0.000000,,2013-12-16 12:42:00,
2013-12-16 05:52:00,37.0,18.0,-100.00,North,354,4.0,17.0,46,0.00,,,0.00,0.000000,,2013-12-16 12:52:00,
2013-12-16 06:22:00,36.0,18.0,-100.00,North,7,5.0,19.0,47,0.00,,,0.00,0.000000,,2013-12-16 13:22:00,
2013-12-16 06:32:00,36.0,18.0,-100.00,North,7,5.0,19.0,47,0.00,,,0.00,0.000000,,2013-12-16 13:32:00,
2013-12-16 06:42:00,36.0,18.0,-100.00,North,7,5.0,19.0,47,0.00,,,0.00,0.000000,,2013-12-16 13:42:00,
2013-12-16 06:52:00,36.0,18.0,-100.00,North,7,5.0,19.0,47,0.00,,,0.00,0.000000,,2013-12-16 13:52:00,
2013-12-16 07:22:00,34.0,18.0,-100.00,WNW,301,2.0,12.0,51,0.00,,,0.00,0.000000,,2013-12-16 14:22:00,
2013-12-16 07:32:00,34.0,18.0,-100.00,WNW,301,2.0,12.0,51,0.00,,,0.00,0.000000,,2013-12-16 14:32:00,
2013-12-16 07:42:00,34.0,18.0,-100.00,WNW,301,2.0,12.0,51,0.00,,,0.00,0.000000,,2013-12-16 14:42:00,
2013-12-16 07:52:00,34.0,18.0,-100.00,WNW,301,2.0,12.0,51,0.00,,,0.00,0.000000,,2013-12-16 14:52:00,
2013-12-16 08:22:00,34.0,17.0,-100.00,SSW,199,2.0,5.0,50,0.00,,,-99.99,7.000000,,2013-12-16 15:22:00,
2013-12-16 08:33:00,34.0,17.0,-100.00,SSW,199,2.0,5.0,50,0.00,,,-99.99,7.000000,,2013-12-16 15:33:00,
2013-12-16 08:43:00,34.0,17.0,-100.00,SSW,199,2.0,5.0,50,0.00,,,-99.99,7.000000,,2013-12-16 15:43:00,
2013-12-16 08:54:00,34.0,17.0,-100.00,SSW,199,2.0,5.0,50,0.00,,,-99.99,7.000000,,2013-12-16 15:54:00,
2013-12-16 09:43:00,42.0,19.0,-100.00,South,191,1.0,5.0,40,0.00,,,0.00,155.000000,,2013-12-16 16:43:00,
2013-12-16 09:52:00,42.0,19.0,-100.00,South,191,1.0,5.0,40,0.00,,,0.00,155.000000,,2013-12-16 16:52:00,
2013-12-16 10:22:00,44.0,19.0,-100.00,West,268,3.0,11.0,37,0.00,,,0.00,303.000000,,2013-12-16 17:22:00,
2013-12-16 10:33:00,44.0,19.0,-100.00,West,268,3.0,11.0,37,0.00,,,0.00,303.000000,,2013-12-16 17:33:00,
2013-12-16 10:42:00,44.0,19.0,-100.00,West,268,3.0,11.0,37,0.00,,,0.00,303.000000,,2013-12-16 17:42:00,
2013-12-16 10:52:00,44.0,19.0,-100.00,West,268,3.0,11.0,37,0.00,,,0.00,303.000000,,2013-12-16 17:52:00,
2013-12-16 11:22:00,45.0,20.0,-100.00,SSW,213,4.0,8.0,37,0.00,,,0.00,404.000000,,2013-12-16 18:22:00,
2013-12-16 11:32:00,45.0,20.0,-100.00,SSW,213,4.0,8.0,37,0.00,,,0.00,404.000000,,2013-12-16 18:32:00,
2013-12-16 11:42:00,45.0,20.0,-100.00,SSW,213,4.0,8.0,37,0.00,,,0.00,404.000000,,2013-12-16 18:42:00,
2013-12-16 11:52:00,45.0,20.0,-100.00,SSW,213,4.0,8.0,37,0.00,,,0.00,404.000000,,2013-12-16 18:52:00,
2013-12-16 12:21:00,47.0,21.0,-100.00,West,266,5.0,11.0,35,0.00,,,0.00,447.000000,,2013-12-16 19:21:00,
2013-12-16 12:32:00,47.0,21.0,-100.00,West,266,5.0,11.0,35,0.00,,,0.00,447.000000,,2013-12-16 19:32:00,
2013-12-16 12:42:00,47.0,21.0,-100.00,West,266,5.0,11.0,35,0.00,,,0.00,447.000000,,2013-12-16 19:42:00,
2013-12-16 12:52:00,47.0,21.0,-100.00,West,266,5.0,11.0,35,0.00,,,0.00,447.000000,,2013-12-16 19:52:00,
2013-12-16 13:22:00,46.0,21.0,-100.00,West,277,7.0,11.0,36,0.00,,,0.00,345.000000,,2013-12-16 20:22:00,
2013-12-16 13:32:00,46.0,21.0,-100.00,West,277,7.0,11.0,36,0.00,,,0.00,345.000000,,2013-12-16 20:32:00,
2013-12-16 13:42:00,46.0,21.0,-100.00,West,277,7.0,11.0,36,0.00,,,0.00,345.000000,,2013-12-16 20:42:00,
2013-12-16 13:53:00,46.0,21.0,-100.00,West,277,7.0,11.0,36,0.00,,,0.00,345.000000,,2013-12-16 20:53:00,
2013-12-16 14:22:00,45.0,20.0,-100.00,WNW,292,7.0,14.0,37,0.00,,,0.00,252.000000,,2013-12-16 21:22:00,
2013-12-16 14:32:00,45.0,20.0,-100.00,WNW,292,7.0,14.0,37,0.00,,,0.00,252.000000,,2013-12-16 21:32:00,
2013-12-16 14:43:00,45.0,20.0,-100.00,WNW,292,7.0,14.0,37,0.00,,,0.00,252.000000,,2013-12-16 21:43:00,
2013-12-16 14:53:00,45.0,20.0,-100.00,WNW,292,7.0,14.0,37,0.00,,,0.00,252.000000,,2013-12-16 21:53:00,
2013-12-16 15:23:00,46.0,22.0,-100.00,NW,312,7.0,18.0,38,0.00,,,0.00,177.000000,,2013-12-16 22:23:00,
2013-12-16 15:33:00,46.0,22.0,-100.00,NW,312,7.0,18.0,38,0.00,,,0.00,177.000000,,2013-12-16 22:33:00,
2013-12-16 15:43:00,46.0,22.0,-100.00,NW,312,7.0,18.0,38,0.00,,,0.00,177.000000,,2013-12-16 22:43:00,
2013-12-16 15:53:00,46.0,22.0,-100.00,NW,312,7.0,18.0,38,0.00,,,0.00,177.000000,,2013-12-16 22:53:00,
2013-12-16 16:22:00,42.0,21.0,-100.00,NW,307,8.0,21.0,43,0.00,,,0.00,44.000000,,2013-12-16 23:22:00,
2013-12-16 16:33:00,42.0,21.0,-100.00,NW,307,8.0,21.0,43,0.00,,,0.00,44.000000,,2013-12-16 23:33:00,
2013-12-16 16:42:00,42.0,21.0,-100.00,NW,307,8.0,21.0,43,0.00,,,0.00,44.000000,,2013-12-16 23:42:00,
2013-12-16 16:53:00,42.0,21.0,-100.00,NW,307,8.0,21.0,43,0.00,,,0.00,44.000000,,2013-12-16 23:53:00,
2013-12-16 17:22:00,41.0,20.0,-100.00,NW,308,7.0,15.0,43,0.00,,,0.00,5.000000,,2013-12-17 00:22:00,
2013-12-16 17:32:00,41.0,20.0,-100.00,NW,308,7.0,15.0,43,0.00,,,0.00,5.000000,,2013-12-17 00:32:00,
2013-12-16 17:42:00,41.0,20.0,-100.00,NW,308,7.0,15.0,43,0.00,,,0.00,5.000000,,2013-12-17 00:42:00,
2013-12-16 17:52:00,41.0,20.0,-100.00,NW,308,7.0,15.0,43,0.00,,,0.00,5.000000,,2013-12-17 00:52:00,
2013-12-16 18:22:00,39.0,19.0,-100.00,NW,307,6.0,18.0,45,0.00,,,0.00,0.000000,,2013-12-17 01:22:00,
2013-12-16 18:32:00,39.0,19.0,-100.00,NW,307,6.0,18.0,45,0.00,,,0.00,0.000000,,2013-12-17 01:32:00,
2013-12-16 18:42:00,39.0,19.0,-100.00,NW,307,6.0,18.0,45,0.00,,,0.00,0.000000,,2013-12-17 01:42:00,
2013-12-16 18:52:00,39.0,19.0,-100.00,NW,307,6.0,18.0,45,0.00,,,0.00,0.000000,,2013-12-17 01:52:00,
2013-12-16 19:22:00,38.0,20.0,-100.00,NW,312,5.0,14.0,48,0.00,,,0.00,0.000000,,2013-12-17 02:22:00,
2013-12-16 19:32:00,38.0,20.0,-100.00,NW,312,5.0,14.0,48,0.00,,,0.00,0.000000,,2013-12-17 02:32:00,
2013-12-16 19:42:00,38.0,20.0,-100.00,NW,312,5.0,14.0,48,0.00,,,0.00,0.000000,,2013-12-17 02:42:00,
2013-12-16 19:52:00,38.0,20.0,-100.00,NW,312,5.0,14.0,48,0.00,,,0.00,0.000000,,2013-12-17 02:52:00,
2013-12-16 20:22:00,37.0,20.0,-100.00,NW,310,5.0,13.0,49,0.00,,,0.00,0.000000,,2013-12-17 03:22:00,
2013-12-16 20:33:00,37.0,20.0,-100.00,NW,310,5.0,13.0,49,0.00,,,0.00,0.000000,,2013-12-17 03:33:00,
2013-12-16 20:43:00,37.0,20.0,-100.00,NW,310,5.0,13.0,49,0.00,,,0.00,0.000000,,2013-12-17 03:43:00,
2013-12-16 20:53:00,37.0,20.0,-100.00,NW,310,5.0,13.0,49,0.00,,,0.00,0.000000,,2013-12-17 03:53:00,
2013-12-16 21:23:00,35.0,20.0,-100.00,West,271,2.0,12.0,54,0.00,,,0.00,0.000000,,2013-12-17 04:23:00,
2013-12-16 21:33:00,35.0,20.0,-100.00,West,271,2.0,12.0,54,0.00,,,0.00,0.000000,,2013-12-17 04:33:00,
2013-12-16 21:43:00,35.0,20.0,-100.00,West,271,2.0,12.0,54,0.00,,,0.00,0.000000,,2013-12-17 04:43:00,
2013-12-16 21:53:00,35.0,20.0,-100.00,West,271,2.0,12.0,54,0.00,,,0.00,0.000000,,2013-12-17 04:53:00,
2013-12-16 22:22:00,34.0,21.0,-100.00,WNW,295,4.0,9.0,58,0.00,,,0.00,0.000000,,2013-12-17 05:22:00,
2013-12-16 22:33:00,34.0,21.0,-100.00,WNW,295,4.0,9.0,58,0.00,,,0.00,0.000000,,2013-12-17 05:33:00,
2013-12-16 22:42:00,34.0,21.0,-100.00,WNW,295,4.0,9.0,58,0.00,,,0.00,0.000000,,2013-12-17 05:42:00,
2013-12-16 22:52:00,34.0,21.0,-100.00,WNW,295,4.0,9.0,58,0.00,,,0.00,0.000000,,2013-12-17 05:52:00,
2013-12-16 23:22:00,33.0,21.0,-100.00,WNW,296,4.0,9.0,61,0.00,,,0.00,0.000000,,2013-12-17 06:22:00,
2013-12-16 23:32:00,33.0,21.0,-100.00,WNW,296,4.0,9.0,61,0.00,,,0.00,0.000000,,2013-12-17 06:32:00,
2013-12-16 23:42:00,33.0,21.0,-100.00,WNW,296,4.0,9.0,61,0.00,,,0.00,0.000000,,2013-12-17 06:42:00,
2013-12-16 23:52:00,33.0,21.0,-100.00,WNW,296,4.0,9.0,61,0.00,,,0.00,0.000000,,2013-12-17 06:52:00,